Date String (YYYY-MM-DD hh:mm:ss) UTC,Instrument flags,absolute air pressure of the measurement (hPa),sample flow rate (lpm),inlet stack bypass flow (lpm),air temperature of the measurement (°C),ambient temperature measured by the external sensor (°C),aerosol sample conditioner tube jacket temperature (°C),OPC LED temperature (°C),internal box temperature (°C),relative humidity of the measurement (%),span deviation,mass concentration of particles derived from Lorenz-Mie calculation of OPC scattering (μg/m³),mass concentration of particles derived from Lorenz-Mie calculation of OPC scattering (μg/m³),mass concentration of particles derived from Lorenz-Mie calculation of OPC scattering (μg/m³)
DateTimeUTC,F1_M11,P_M11,Q1_M11,Q2_M11,T1_M11,T2_M11,T3_M11,T4_M11,T5_M11,U1_M11,ZSPAN_M11,X2_M11,X0_M11,X1_M11
2023-07-25 06:00:00,SystemResetWarning,0834.4,5.00,000.00,029.1,027.9,000.0,037.5,030.9,34.3,0000.0,0005.90,0013.46,0005.13
2023-07-25 06:01:00,SystemResetWarning,0834.4,5.01,000.00,029.2,028.0,000.0,037.5,030.9,34.5,0000.0,0005.88,0013.45,0005.14
2023-07-25 06:02:00,SystemResetWarning,0834.3,4.99,000.00,029.2,026.6,000.0,037.4,030.7,34.5,0000.0,0005.91,0013.55,0005.17
2023-07-25 06:03:00,SystemResetWarning,0834.3,5.01,000.00,029.1,025.5,000.0,037.3,030.5,34.3,0000.0,0005.91,0013.59,0005.18
2023-07-25 06:04:00,SystemResetWarning,0834.5,5.00,000.00,029.0,025.5,000.0,037.3,030.3,33.7,0000.0,0005.91,0013.32,0005.20
2023-07-25 06:05:00,SystemResetWarning,0834.4,4.99,000.00,029.0,025.8,000.0,037.4,030.3,33.9,0000.0,0005.94,0013.11,0005.22
2023-07-25 06:06:00,SystemResetWarning,0834.3,5.00,000.00,028.9,026.2,000.0,037.4,030.4,33.4,0000.0,0006.00,0012.49,0005.25
2023-07-25 06:07:00,SystemResetWarning,0834.3,5.00,000.00,029.0,026.6,000.0,037.4,030.5,33.3,0000.0,0006.06,0013.43,0005.29
2023-07-25 06:08:00,SystemResetWarning,0834.3,5.01,000.00,029.0,026.9,000.0,037.4,030.6,33.5,0000.0,0006.14,0014.24,0005.32
2023-07-25 06:09:00,SystemResetWarning,0834.3,5.01,000.00,029.0,027.2,000.0,037.4,030.7,33.2,0000.0,0006.23,0014.69,0005.34
2023-07-25 06:10:00,SystemResetWarning,0834.3,4.99,000.00,029.0,027.4,000.0,037.5,030.7,33.3,0000.0,0006.25,0014.81,0005.37
2023-07-25 06:11:00,SystemResetWarning,0834.3,5.00,000.00,029.1,027.7,000.0,037.5,030.8,32.9,0000.0,0006.33,0015.02,0005.41
2023-07-25 06:12:00,SystemResetWarning,0834.3,5.00,000.00,029.1,027.8,000.0,037.5,030.8,32.8,0000.0,0006.47,0014.51,0005.46
2023-07-25 06:13:00,SystemResetWarning,0834.4,5.00,000.00,029.2,028.0,000.0,037.5,030.9,32.2,0000.0,0006.53,0014.38,0005.50
2023-07-25 06:14:00,SystemResetWarning,0834.4,4.98,000.00,029.2,027.1,000.0,037.4,030.8,32.2,0000.0,0006.55,0014.25,0005.53
2023-07-25 06:15:00,SystemResetWarning,0834.4,5.01,000.00,029.1,025.7,000.0,037.3,030.6,32.3,0000.0,0006.60,0014.29,0005.57
2023-07-25 06:16:00,SystemResetWarning,0834.3,5.01,000.00,029.1,025.4,000.0,037.3,030.4,32.1,0000.0,0006.66,0014.65,0005.62
2023-07-25 06:17:00,SystemResetWarning,0834.4,4.98,000.00,029.0,025.7,000.0,037.3,030.3,32.2,0000.0,0006.66,0015.05,0005.65
2023-07-25 06:18:00,SystemResetWarning,0834.4,5.00,000.00,029.0,026.1,000.0,037.4,030.4,32.3,0000.0,0006.70,0014.39,0005.66
2023-07-25 06:19:00,SystemResetWarning,0834.4,5.01,000.00,029.0,026.5,000.0,037.4,030.5,32.1,0000.0,0006.69,0013.17,0005.66
2023-07-25 06:20:00,SystemResetWarning,0834.4,5.01,000.00,029.0,026.8,000.0,037.4,030.5,32.2,0000.0,0006.66,0012.51,0005.66
2023-07-25 06:21:00,SystemResetWarning,0834.4,5.00,000.00,029.0,027.1,000.0,037.4,030.6,32.2,0000.0,0006.63,0012.27,0005.65
2023-07-25 06:22:00,SystemResetWarning,0834.4,5.00,000.00,029.0,027.4,000.0,037.4,030.7,32.2,0000.0,0006.58,0011.96,0005.62
2023-07-25 06:23:00,SystemResetWarning,0834.4,4.99,000.00,029.1,027.6,000.0,037.5,030.8,32.5,0000.0,0006.46,0011.71,0005.59
2023-07-25 06:24:00,SystemResetWarning,0834.3,5.00,000.00,029.1,027.8,000.0,037.5,030.8,34.0,0000.0,0006.42,0011.89,0005.59
2023-07-25 06:25:00,SystemResetWarning,0834.3,5.00,000.00,029.2,027.9,000.0,037.5,030.9,33.6,0000.0,0006.44,0011.96,0005.57
2023-07-25 06:26:00,SystemResetWarning,0834.6,4.99,000.00,029.2,026.6,000.0,037.4,030.7,32.5,0000.0,0006.42,0011.44,0005.52
2023-07-25 06:27:00,SystemResetWarning,0834.2,5.01,000.00,029.1,025.6,000.0,037.3,030.5,31.8,0000.0,0006.35,0011.44,0005.48
2023-07-25 06:28:00,SystemResetWarning,0834.2,5.01,000.00,029.0,025.5,000.0,037.3,030.3,32.1,0000.0,0006.32,0010.83,0005.45
2023-07-25 06:29:00,SystemResetWarning,0834.2,4.99,000.00,028.9,025.7,000.0,037.3,030.3,33.3,0000.0,0006.28,0010.77,0005.43
2023-07-25 06:30:00,SystemResetWarning,0834.2,5.00,000.00,028.9,026.1,000.0,037.4,030.4,34.4,0000.0,0006.28,0010.93,0005.40
2023-07-25 06:31:00,SystemResetWarning,0834.2,5.00,000.00,028.9,026.5,000.0,037.4,030.4,34.0,0000.0,0006.26,0010.98,0005.40
2023-07-25 06:32:00,SystemResetWarning,0834.2,5.00,000.00,028.9,026.9,000.0,037.4,030.5,34.3,0000.0,0006.31,0011.12,0005.40
2023-07-25 06:33:00,SystemResetWarning,0834.4,4.98,000.00,029.0,027.2,000.0,037.4,030.6,34.9,0000.0,0006.33,0011.24,0005.40
2023-07-25 06:34:00,SystemResetWarning,0834.5,5.01,000.00,029.1,027.4,000.0,037.4,030.7,34.3,0000.0,0006.35,0011.25,0005.41
2023-07-25 06:35:00,SystemResetWarning,0834.3,5.01,000.00,029.2,027.6,000.0,037.4,030.8,33.7,0000.0,0006.36,0011.10,0005.41
2023-07-25 06:36:00,SystemResetWarning,0834.2,5.00,000.00,029.2,027.8,000.0,037.5,030.8,34.0,0000.0,0006.36,0010.97,0005.44
2023-07-25 06:37:00,SystemResetWarning,0834.2,4.98,000.00,029.3,027.9,000.0,037.5,030.9,33.1,0000.0,0006.35,0011.17,0005.46
2023-07-25 06:38:00,SystemResetWarning,0834.2,5.00,000.00,029.3,027.0,000.0,037.4,030.8,33.1,0000.0,0006.40,0010.95,0005.49
2023-07-25 06:39:00,SystemResetWarning,0834.1,5.00,000.00,029.3,025.6,000.0,037.4,030.5,34.1,0000.0,0006.42,0010.91,0005.50
2023-07-25 06:40:00,SystemResetWarning,0834.1,5.01,000.00,029.2,025.3,000.0,037.3,030.3,34.3,0000.0,0006.43,0010.94,0005.50
2023-07-25 06:41:00,SystemResetWarning,0834.0,5.01,000.00,029.1,025.6,000.0,037.4,030.3,34.5,0000.0,0006.40,0010.68,0005.52
2023-07-25 06:42:00,SystemResetWarning,0834.1,5.00,000.00,029.1,026.0,000.0,037.4,030.3,33.9,0000.0,0006.42,0010.67,0005.54
2023-07-25 06:43:00,SystemResetWarning,0834.1,4.99,000.00,029.1,026.4,000.0,037.4,030.4,33.9,0000.0,0006.42,0010.70,0005.55
2023-07-25 06:44:00,SystemResetWarning,0834.1,5.00,000.00,029.1,026.7,000.0,037.5,030.5,33.9,0000.0,0006.44,0010.70,0005.57
2023-07-25 06:45:00,SystemResetWarning,0834.0,5.01,000.00,029.1,027.0,000.0,037.5,030.6,34.0,0000.0,0006.47,0010.72,0005.58
2023-07-25 06:46:00,SystemResetWarning,0834.0,4.99,000.00,029.2,027.3,000.0,037.5,030.7,34.1,0000.0,0006.46,0010.76,0005.57
2023-07-25 06:47:00,SystemResetWarning,0834.0,4.98,000.00,029.2,027.5,000.0,037.5,030.7,33.6,0000.0,0006.49,0010.95,0005.55
2023-07-25 06:48:00,SystemResetWarning,0834.0,5.01,000.00,029.2,027.7,000.0,037.5,030.8,33.2,0000.0,0006.48,0010.63,0005.55
2023-07-25 06:49:00,SystemResetWarning,0833.9,5.01,000.00,029.3,027.9,000.0,037.6,030.8,32.5,0000.0,0006.44,0010.70,0005.54
2023-07-25 06:50:00,SystemResetWarning,0834.0,5.00,000.00,029.3,028.0,000.0,037.6,030.9,32.0,0000.0,0006.40,0010.62,0005.53
2023-07-25 06:51:00,SystemResetWarning,0833.9,4.98,000.00,029.3,027.6,000.0,037.6,030.9,31.5,0000.0,0006.38,0010.58,0005.54
2023-07-25 06:52:00,SystemResetWarning,0833.9,5.00,000.00,029.3,026.0,000.0,037.5,030.6,31.0,0000.0,0006.39,0010.67,0005.54
2023-07-25 06:53:00,SystemResetWarning,0833.9,5.01,000.00,029.2,025.4,000.0,037.4,030.5,31.4,0000.0,0006.38,0010.68,0005.52
2023-07-25 06:54:00,SystemResetWarning,0833.9,5.00,000.00,029.1,025.5,000.0,037.4,030.3,31.5,0000.0,0006.31,0010.64,0005.50
2023-07-25 06:55:00,SystemResetWarning,0833.9,5.00,000.00,029.1,025.8,000.0,037.5,030.3,31.6,0000.0,0006.29,0011.36,0005.48
2023-07-25 06:56:00,SystemResetWarning,0833.9,5.00,000.00,029.1,026.2,000.0,037.5,030.4,32.3,0000.0,0006.28,0011.64,0005.46
2023-07-25 06:57:00,SystemResetWarning,0833.8,5.00,000.00,029.1,026.6,000.0,037.5,030.5,32.3,0000.0,0006.30,0011.87,0005.47
2023-07-25 06:58:00,SystemResetWarning,0833.9,5.00,000.00,029.1,026.9,000.0,037.5,030.6,32.4,0000.0,0006.30,0012.54,0005.48
2023-07-25 06:59:00,SystemResetWarning,0833.8,5.01,000.00,029.1,027.2,000.0,037.5,030.7,32.2,0000.0,0006.36,0013.04,0005.51
